sat.trackr.live / text

‹ back to catalog

EYESAT A (AO-27)

NORAD 22825 · 1993-061C

PAYLOAD ACTIVE UNKNOWN

§ Identity

Operator
Country
US
Launch date
1993-09-26
Launch site
FRGUI
Launch vehicle
Mass (kg)
RCS (m²)
0.18

Purposes: comms

External: N2YO · Heavens-Above · Gunter

§ Orbital elements

Epoch: 2026-05-25T03:13:58.800576Z

Period
100.63 min
Inclination
98.6887°
Eccentricity
0.0008777
Mean motion
14.30935001 rev/d
Perigee alt
782.3 km
Apogee alt
794.9 km
Semi-major
7,166.7 km
B*
4.4160e-5
RAAN
212.5554°
Arg perigee
160.9210°
Mean anomaly
199.2303°
Rev number
70,370

§ Raw data

EYESAT A (AO-27)1 22825U 93061C   26145.13470834  .00000071  00000+0  44160-4 0  99922 22825  98.6887 212.5554 0008777 160.9210 199.2303 14.30935001703709

JSON: /api/v1/satellites/22825 · /tle

For live sub-satellite position, see the globe view (requires WebGL).

§ Visibility from observer

Set your observer location to see the next 7 days of passes ≥ 10°. The values pass through the URL so the page stays shareable.

No JS? Fill the form by hand. The geolocation button needs JavaScript.

§ Radio — SatNOGS DB

ModeDescriptionDownlinkUplink
FM Mode S 2.218 GHz
GMSK Mode U - GMSK9k6 436.797 MHz
AFSK Mode U AFSK Beacon 436.795 MHz
FM Mode V/U FM 436.795 MHz 145.850 MHz

4 transmitters · refreshed weekly from db.satnogs.org